[[{"header":{"parameterUnit":"m.s-1","parameterCategory":1,"la1":30.2991,"la2":30.254,"lo1":-89.0895,"lo2":-89.0444,"dy":0.0017,"dx":0.0017,"nx":28,"ny":28,"refTime":"2026-02-10T09:00:00:Z","depth":0,"parameterNumber":2,"parameterNumberName":"U-component_of_WINDS"},"data":[0,0,0,0,0,0,0,0,0,0,0,0,0,0,0,0,0,0,0,0,0,0,0,0,0,0,0,0,0,0,0,0,0,0,0,0,0,0,0,0,0,0,0,0,0,0,0,0,0,0,0,0,0,0,0,0,0,0,0.532,0.532,0,0.5308,0.5308,0.5308,0.5241,0.5239,0.5238,0.5236,0.5227,0.5228,0.5229,0,0,0,0,0,0,0,0,0,0,0,0,0,0.5286,0.5287,0.532,0.532,0.532,0.5308,0.5308,0.5308,0.5241,0.5239,0.5237,0.5235,0.5226,0.5228,0.5229,0,0,0,0,0,0,0,0,0,0,0,0,0,0.529,0.5287,0.532,0.5285,0.5282,0.5308,0.5308,0.5308,0.5242,0.5239,0.5237,0.5234,0.5226,0.5228,0.523,0.529,0,0,0.5236,0.5236,0,0,0,0,0,0,0,0,0.529,0.5291,0.529,0.5287,0.5284,0.5273,0.5293,0.5302,0.5242,0.5257,0.5236,0.5233,0.5245,0.5245,0.5248,0.529,0.5289,0.5236,0.5237,0.5238,0.5238,0,0,0,0,0,0,0,0.529,0.5292,0.5315,0.529,0.5286,0.527,0.5268,0.5294,0.5265,0.5255,0.525,0.525,0.5242,0.5246,0.5247,0.5289,0.5236,0.5237,0.5239,0.5239,0.5379,0.5381,0,0,0,0,0,0,0.5294,0.5292,0.5316,0.5315,0.5281,0.5273,0.527,0.5279,0.5264,0.5259,0.5252,0.5247,0.5244,0.5245,0.5247,0.5316,0.5238,0.5239,0.5241,0.5376,0.5379,0.5382,0,0,0,0,0,0,0.5294,0.5297,0.5316,0.5302,0.5303,0.5276,0.5286,0.528,0.5284,0.5261,0.5256,0.5261,0.5242,0.5244,0.5279,0.5315,0.524,0.5242,0.5373,0.5377,0.5381,0.5455,0,0,0,0,0,0,0.5293,0.5297,0.532,0.5303,0.5304,0.5349,0.5289,0.5282,0.5287,0.5281,0.5269,0.5265,0.5241,0.5277,0.5281,0.5316,0.5244,0.537,0.5375,0.5379,0.5449,0.5461,0.5471,0,0,0,0,0,0.5292,0.5342,0.5321,0.5325,0.5332,0.5351,0.5352,0.5323,0.5291,0.5313,0.5298,0.5265,0.531,0.5281,0.5286,0.5321,0.5368,0.5373,0.5379,0.5445,0.5459,0.5471,0,0,0,0,0,0,0.5365,0.5339,0.5316,0.5362,0.5359,0.534,0.5368,0.5339,0.5346,0.5339,0.5303,0.5301,0.5341,0.5335,0.5303,0.5378,0.5333,0.534,0.5381,0.5395,0.5405,0.5406,0.5245,0,0,0,0,0,0.5387,0.5404,0.538,0.5424,0.5423,0.5396,0.5403,0.538,0.5376,0.5375,0.5363,0.5361,0.5374,0.5384,0.5395,0.5448,0.5444,0.5474,0.5485,0.5494,0.5501,0.5527,0.554,0.5401,0.5401,0.5401,0,0,0.5431,0.5419,0.5433,0.5438,0.5433,0.5452,0.5395,0.5418,0.5432,0.5379,0.5411,0.5402,0.5397,0.5441,0.546,0.5437,0.5538,0.5501,0.5509,0.551,0.5534,0.5547,0.5559,0.5405,0.5404,0.5403,0,0,0.5522,0.5515,0.5549,0.5545,0.5538,0.5519,0.5527,0.5512,0.5503,0.5534,0.5495,0.5511,0.5535,0.5532,0.5535,0.5623,0.5592,0.5627,0.5684,0.571,0.5721,0.573,0.5761,0.5773,0.5634,0.5634,0.5634,0,0.5579,0.5606,0.5571,0.5596,0.5599,0.555,0.5585,0.5583,0.558,0.5583,0.5557,0.5585,0.5578,0.5621,0.5642,0.5645,0.5654,0.5629,0.5722,0.5731,0.5739,0.5769,0.578,0.5638,0.5638,0.5637,0.5637,0,0.5676,0.5694,0.5723,0.572,0.5726,0.5756,0.5726,0.5737,0.5713,0.5697,0.5729,0.5719,0.5727,0.5735,0.5713,0.5774,0.5759,0.5728,0.5682,0.5758,0.5784,0.5795,0.5644,0.5643,0.5642,0.564,0,0,0.5814,0.579,0.5801,0.5798,0.5786,0.58,0.5827,0.5833,0.5842,0.5842,0.5863,0.5884,0.5854,0.5857,0.5833,0.5856,0.5926,0.5822,0.5821,0.5841,0.5991,0.6015,0.6029,0.5905,0.5907,0.5908,0.5992,0,0.5901,0.5945,0.5914,0.5964,0.598,0.5933,0.5956,0.5951,0.5937,0.5949,0.5932,0.5947,0.5907,0.5908,0.5929,0.5913,0.5955,0.5906,0.5925,0.5926,0.5928,0.6043,0.6068,0.6147,0.6002,0.6004,0.6005,0,0.6009,0.6011,0.6062,0.6044,0.605,0.6072,0.6074,0.6086,0.6079,0.6066,0.6068,0.6038,0.6063,0.6017,0.6052,0.6019,0.6024,0.6018,0.602,0.6021,0.5971,0.6047,0.6172,0.6184,0.6021,0.602,0.6019,0,0.6105,0.612,0.6152,0.6151,0.6132,0.6148,0.614,0.6131,0.6136,0.6138,0.6141,0.6146,0.615,0.6155,0.6127,0.6096,0.6165,0.6117,0.6155,0.6156,0.6172,0.6172,0.63,0.6176,0.6176,0.6176,0.6175,0,0.6205,0.6238,0.6195,0.6215,0.625,0.6213,0.6249,0.6237,0.6228,0.6245,0.6205,0.6221,0.6184,0.6197,0.6175,0.6206,0.6208,0.6199,0.6193,0.6203,0.6204,0.6206,0.62,0.6179,0.6178,0.6177,0.6177,0,0.6319,0.6291,0.6322,0.63,0.6295,0.6322,0.6303,0.632,0.6302,0.6324,0.6327,0.6298,0.6311,0.6283,0.6293,0.6278,0.6322,0.6308,0.6325,0.632,0.636,0.6357,0.6495,0.6511,0.6377,0.6378,0.6379,0,0.6385,0.6408,0.6388,0.6395,0.639,0.6403,0.6407,0.6372,0.6378,0.6371,0.6389,0.6398,0.6403,0.6426,0.6407,0.6413,0.6398,0.6446,0.6399,0.6408,0.6399,0.6398,0.6399,0.6456,0.6458,0.6459,0.646,0,0.6505,0.6489,0.6497,0.6499,0.6505,0.6505,0.6503,0.6511,0.6474,0.6483,0.6494,0.6499,0.6507,0.6516,0.6518,0.6511,0.648,0.6475,0.6484,0.6494,0.6503,0.6498,0.6351,0.6472,0.6471,0.647,0.6469,0.6469,0.6596,0.6615,0.6603,0.6612,0.6606,0.6604,0.6619,0.6601,0.661,0.6613,0.6592,0.6608,0.6599,0.6598,0.6593,0.6605,0.6584,0.6598,0.6601,0.6605,0.6611,0.6501,0.6606,0.6605,0.6605,0.6605,0.6604,0,0.6714,0.6703,0.6712,0.6709,0.6716,0.6684,0.6679,0.6687,0.6702,0.6695,0.67,0.6713,0.6722,0.6702,0.6707,0.6721,0.6707,0.6724,0.6722,0.6721,0.663,0.6622,0.6735,0.6735,0.6735,0.6735,0.6735,0.6735,0.6776,0.6805,0.6788,0.6813,0.6802,0.6817,0.6817,0.6815,0.6809,0.6825,0.6831,0.6817,0.6806,0.6809,0.6816,0.6809,0.6813,0.6835,0.6825,0.674,0.6728,0.6715,0.6707,0.6836,0.6837,0.6914,0.6915,0.6915]},{"header":{"parameterUnit":"m.s-1","parameterCategory":1,"la1":30.2991,"la2":30.254,"lo1":-89.0895,"lo2":-89.0444,"dy":0.0017,"dx":0.0017,"nx":28,"ny":28,"refTime":"2026-02-10T09:00:00:Z","depth":0,"parameterNumber":3,"parameterNumberName":"V-component_of_WINDS"},"data":[0,0,0,0,0,0,0,0,0,0,0,0,0,0,0,0,0,0,0,0,0,0,0,0,0,0,0,0,0,0,0,0,0,0,0,0,0,0,0,0,0,0,0,0,0,0,0,0,0,0,0,0,0,0,0,0,0,0,0.122,0.122,0,0.1215,0.1215,0.1215,0.1191,0.119,0.119,0.1189,0.1183,0.1183,0.1183,0,0,0,0,0,0,0,0,0,0,0,0,0,0.1207,0.1207,0.122,0.122,0.122,0.1215,0.1215,0.1215,0.1191,0.119,0.119,0.1189,0.1183,0.1183,0.1183,0,0,0,0,0,0,0,0,0,0,0,0,0,0.1208,0.1207,0.122,0.1208,0.1206,0.1215,0.1215,0.1215,0.1191,0.119,0.1189,0.1189,0.1182,0.1183,0.1184,0.1204,0,0,0.1185,0.1185,0,0,0,0,0,0,0,0,0.1208,0.1209,0.121,0.1209,0.1207,0.1203,0.1208,0.1211,0.1191,0.1197,0.1189,0.1188,0.119,0.119,0.1191,0.1203,0.1203,0.1185,0.1186,0.1186,0.1186,0,0,0,0,0,0,0,0.1208,0.1209,0.1218,0.121,0.1208,0.1201,0.1201,0.1208,0.1198,0.1196,0.1195,0.1194,0.1189,0.119,0.119,0.1203,0.1185,0.1186,0.1186,0.1186,0.1229,0.123,0,0,0,0,0,0,0.121,0.1209,0.1218,0.1218,0.1206,0.1202,0.1201,0.1205,0.1198,0.1196,0.1195,0.1193,0.119,0.119,0.119,0.1211,0.1186,0.1186,0.1187,0.1228,0.1229,0.123,0,0,0,0,0,0,0.121,0.1211,0.1219,0.1213,0.1213,0.1203,0.1208,0.1205,0.1207,0.1197,0.1195,0.1198,0.1189,0.1189,0.12,0.1211,0.1186,0.1187,0.1227,0.1229,0.123,0.1256,0,0,0,0,0,0,0.1209,0.1211,0.122,0.1213,0.1214,0.123,0.1208,0.1206,0.1208,0.1205,0.12,0.1198,0.1189,0.1199,0.1201,0.1211,0.1187,0.1226,0.1228,0.1229,0.1254,0.1258,0.1261,0,0,0,0,0,0.1209,0.1227,0.122,0.1221,0.1224,0.123,0.1231,0.122,0.1209,0.1216,0.121,0.1198,0.121,0.1201,0.1202,0.1213,0.1226,0.1227,0.1229,0.1252,0.1257,0.1261,0,0,0,0,0,0,0.1235,0.1226,0.1218,0.1235,0.1234,0.1226,0.1236,0.1226,0.1227,0.1225,0.1211,0.121,0.1222,0.1218,0.1208,0.1231,0.1215,0.1218,0.1232,0.1237,0.124,0.1241,0.1188,0,0,0,0,0,0.1243,0.125,0.1241,0.1257,0.1257,0.1246,0.1249,0.124,0.1238,0.1237,0.1232,0.1229,0.1232,0.1234,0.1237,0.1253,0.125,0.1261,0.1265,0.1268,0.127,0.1276,0.128,0.1236,0.1236,0.1236,0,0,0.1259,0.1255,0.126,0.1262,0.126,0.1266,0.1246,0.1254,0.1257,0.1238,0.1248,0.1243,0.1239,0.1253,0.1258,0.125,0.1281,0.127,0.1272,0.1273,0.1278,0.1282,0.1286,0.1237,0.1237,0.1237,0,0,0.1292,0.129,0.1302,0.13,0.1296,0.1289,0.1292,0.1286,0.1282,0.1291,0.1276,0.128,0.1286,0.1283,0.1282,0.1311,0.1299,0.1312,0.1331,0.1337,0.134,0.1343,0.1351,0.1355,0.1314,0.1314,0.1314,0,0.1312,0.1321,0.1309,0.1317,0.1317,0.13,0.1311,0.1309,0.1307,0.1307,0.1298,0.1304,0.13,0.1311,0.1318,0.1318,0.132,0.1313,0.1341,0.1343,0.1346,0.1354,0.1357,0.1315,0.1315,0.1315,0.1315,0,0.1345,0.1351,0.1361,0.1359,0.136,0.137,0.1358,0.1361,0.1352,0.1345,0.1353,0.1348,0.1348,0.135,0.1342,0.1359,0.1354,0.1343,0.1328,0.1352,0.1359,0.1362,0.1318,0.1317,0.1317,0.1316,0,0,0.1395,0.1385,0.1388,0.1386,0.138,0.1384,0.1392,0.1392,0.1393,0.1392,0.1397,0.1401,0.139,0.1389,0.138,0.1386,0.1406,0.1374,0.1373,0.1379,0.1423,0.143,0.1434,0.1398,0.1399,0.1399,0.1422,0,0.1425,0.1438,0.1426,0.1441,0.1446,0.1428,0.1434,0.1431,0.1424,0.1426,0.1418,0.1421,0.1407,0.1406,0.1411,0.1403,0.1415,0.1401,0.1401,0.1402,0.1402,0.1438,0.1447,0.1469,0.1425,0.1426,0.1426,0,0.1461,0.1461,0.1476,0.1467,0.1468,0.1474,0.1472,0.1475,0.1469,0.1464,0.1462,0.145,0.1455,0.144,0.1446,0.1437,0.1436,0.1432,0.1433,0.1432,0.1415,0.1437,0.1476,0.1479,0.1431,0.143,0.143,0,0.1494,0.1497,0.1506,0.1505,0.1495,0.1499,0.1495,0.1489,0.1489,0.1487,0.1486,0.1484,0.1483,0.1481,0.1469,0.1459,0.1475,0.146,0.147,0.147,0.1474,0.1474,0.1512,0.1475,0.1475,0.1475,0.1475,0,0.1528,0.1538,0.152,0.1526,0.1535,0.1521,0.1531,0.1525,0.1519,0.1522,0.1507,0.1509,0.1493,0.1494,0.1484,0.1489,0.1489,0.1483,0.1481,0.1484,0.1485,0.1483,0.1481,0.1476,0.1476,0.1475,0.1475,0,0.1567,0.1556,0.1564,0.1553,0.1551,0.1558,0.1548,0.1552,0.1544,0.1547,0.1547,0.1534,0.1534,0.1521,0.1518,0.1511,0.152,0.1515,0.1522,0.152,0.153,0.1529,0.1568,0.1572,0.1533,0.1534,0.1534,0,0.1589,0.1596,0.1585,0.1586,0.1583,0.1584,0.1584,0.157,0.1569,0.1562,0.1566,0.1565,0.1563,0.1562,0.1552,0.1549,0.1542,0.1556,0.1542,0.1545,0.1541,0.154,0.154,0.1559,0.156,0.156,0.1561,0,0.1628,0.1622,0.1622,0.162,0.1619,0.1617,0.1613,0.1614,0.1598,0.1599,0.1598,0.1596,0.1592,0.159,0.1585,0.1579,0.1567,0.1565,0.1567,0.1571,0.1574,0.1571,0.1529,0.1564,0.1564,0.1564,0.1563,0.1563,0.1659,0.1663,0.1656,0.1656,0.1651,0.1647,0.165,0.1641,0.1641,0.1637,0.1628,0.1628,0.162,0.1611,0.1607,0.1605,0.1598,0.1601,0.1602,0.1603,0.1604,0.1575,0.1605,0.1604,0.1604,0.1604,0.1604,0,0.1696,0.169,0.169,0.1685,0.1685,0.1673,0.1668,0.1667,0.1668,0.1662,0.1659,0.1657,0.1655,0.1643,0.1639,0.164,0.1634,0.1639,0.1638,0.1637,0.1612,0.161,0.1644,0.1644,0.1644,0.1644,0.1644,0.1644,0.1716,0.1722,0.1715,0.1717,0.1711,0.1711,0.1709,0.1705,0.17,0.1698,0.1696,0.1688,0.1679,0.1673,0.167,0.1666,0.1664,0.1671,0.1666,0.1643,0.1639,0.1635,0.1633,0.1672,0.1672,0.1691,0.1691,0.1691]}]]